(9337) = 1991 FO1 = 1979 WY

Discovered at La Silla on 1991-03-17 by H. Debehogne.

Orbit

Orbit type: Main Belt

Note: WebGL enabled browser required.

epoch2024-03-31.0
epoch JD2460400.5
perihelion date2023-10-05.11968
perihelion JD2460222.61968
argument of perihelion (°)67.95885
ascending node (°)355.41063
inclination (°)1.52087
eccentricity0.0614931
perihelion distance (AU)2.6846305
Tisserand w.r.t. Jupiter3.3
ΔV w.r.t. Earth (km/sec)10.2
semimajor axis (AU)2.8605335
mean anomaly (°)36.23775
mean daily motion (°/day)0.20371980
aphelion distance (AU)3.036
period (years)4.84
P-vector [x]0.44820923
P-vector [y]0.81006701
P-vector [z]0.37802105
Q-vector [x]-0.89392616
Q-vector [y]0.40716508
Q-vector [z]0.18738364
absolute magnitude13.51
phase slope0.15
uncertainty0
referenceMPEC 2024-F62
observations used3395
oppositions25
arc length (days)16195
first opposition used1979
last opposition used2024
residual rms (arc-secs)0.60
perturbers coarse indicatorM-v
perturbers precise indicator003Ek
first observation date used1979-11-16.0
last observation date used2024-03-20.0
computer nameMPCLINUX
JD of orbit computation2456966.850880
perihelion JD uncertainty (days)1.6363E-04
argument of perihelion uncertainty (°)1.3545E-04
ascending node uncertainty (°)1.3092E-04
inclination uncertainty (°)4.2594E-06
eccentricity uncertainty 3.3844E-08
perihelion distance uncertainty (AU)9.9422E-08
Minimum Orbit Intersection Distances (in AU)
for orbit epoch: 2460400.5, reference: E2024-G04
Mercury2.3741
Venus1.96381
Earth1.69842
Mars1.11785
Jupiter2.15285
Saturn6.33501
Uranus15.5319
Neptune27.1049

Observations

3446 total observations over interval: 1979 11 16.81921 – 2024 03 20.150122
These data are available for download (format description).

Date (UT) J2000 RA J2000 Dec Magn Location Ref
1979 11 16.81921 01 38 40.73 +11 52 34.5 18.0   095 – Crimea-Nauchnyi MPC 7290
1979 11 22.78148 01 35 29.68 +11 34 46.7 17.5   095 – Crimea-Nauchnyi MPC 7295
1988 09 10.23273 21 24 54.71 -16 17 59.0 18.5   675 – Palomar Mountain MPC 28994
1988 09 10.26944 21 24 53.37 -16 18 03.3   675 – Palomar Mountain MPC 28994
1991 03 12.27222 11 13 11.45 +05 21 17.1   675 – Palomar Mountain MPC 23029
1991 03 12.30851 11 13 09.44 +05 21 27.9   675 – Palomar Mountain MPC 23029
1991 03 13.25213 11 12 23.25 +05 25 50.4 19.1 V 691 – Steward Observatory, Kitt Peak-Spacewatch MPS 78795
1991 03 13.28285 11 12 21.70 +05 25 59.0 18.6 V 691 – Steward Observatory, Kitt Peak-Spacewatch MPS 78795
1991 03 13.30310 11 12 20.69 +05 26 04.3 19.4 V 691 – Steward Observatory, Kitt Peak-Spacewatch MPS 78795
1991 03 17.24548 11 09 09.80 +05 44 02.7 17.3   809 – European Southern Observatory, La Silla MPC 19225
1991 03 17.25591 11 09 09.29 +05 44 05.5   809 – European Southern Observatory, La Silla MPC 19225
1991 03 17.26632 11 09 08.82 +05 44 07.9   809 – European Southern Observatory, La Silla MPC 19225
1991 03 19.25174 11 07 35.30 +05 52 50.8   809 – European Southern Observatory, La Silla MPC 19225
1991 03 19.26215 11 07 34.81 +05 52 53.6   809 – European Southern Observatory, La Silla MPC 19225
1991 03 19.27257 11 07 34.33 +05 52 56.4   809 – European Southern Observatory, La Silla MPC 19225
1991 03 20.12952 11 06 54.74 +05 56 36.7   809 – European Southern Observatory, La Silla MPC 19225
1991 03 20.13993 11 06 54.26 +05 56 39.3   809 – European Southern Observatory, La Silla MPC 19225
1991 03 20.15034 11 06 53.78 +05 56 42.2   809 – European Southern Observatory, La Silla MPC 19225
1991 03 20.16216 11 06 53.23 +05 56 45.2   809 – European Southern Observatory, La Silla MPC 19225
1991 03 20.17257 11 06 52.75 +05 56 47.9   809 – European Southern Observatory, La Silla MPC 19225
1991 03 20.18298 11 06 52.27 +05 56 50.6   809 – European Southern Observatory, La Silla MPC 19225
1991 03 21.15173 11 06 07.84 +06 00 54.3   809 – European Southern Observatory, La Silla MPC 19225
1991 03 21.16216 11 06 07.36 +06 00 56.9   809 – European Southern Observatory, La Silla MPC 19225
1991 03 21.17257 11 06 06.90 +06 00 59.6   809 – European Southern Observatory, La Silla MPC 19225
1991 04 15.16215 10 52 17.41 +07 13 28.6 18.0   675 – Palomar Mountain MPC 25380
1991 04 15.19583 10 52 16.81 +07 13 29.9   675 – Palomar Mountain MPC 25380
1993 08 20.38299 22 48 58.38 -08 24 54.2 17.0   675 – Palomar Mountain MPC 29750
1993 08 20.40312 22 48 57.40 -08 24 58.4   675 – Palomar Mountain MPC 29750
1993 08 24.27413 22 45 58.88 -08 41 16.9 16.0   675 – Palomar Mountain MPC 29750
1993 08 24.29670 22 45 57.71 -08 41 21.5   675 – Palomar Mountain MPC 29750
1996 03 16.31187 12 13 17.41 -01 39 54.8 17.4 V 566 – Haleakala-NEAT/GEODSS MPC 26821
1996 03 16.33264 12 13 16.40 -01 39 49.1 17.4 V 566 – Haleakala-NEAT/GEODSS MPC 26821
1996 03 16.35353 12 13 15.38 -01 39 43.1 17.5 V 566 – Haleakala-NEAT/GEODSS MPC 26821
1996 03 20.51403 12 09 53.95 -01 20 07.1 17.4 V 566 – Haleakala-NEAT/GEODSS MPC 26821
1996 03 20.53397 12 09 52.96 -01 20 01.5 17.1 V 566 – Haleakala-NEAT/GEODSS MPC 26821
1996 03 20.55488 12 09 51.93 -01 19 55.0 16.8 V 566 – Haleakala-NEAT/GEODSS MPC 26821
1998 08 23.40760 23 56 27.10 -00 41 43.0 17.7   704 – Lincoln Laboratory ETS, New Mexico MPS 1925
1998 08 23.42012 23 56 26.66 -00 41 47.5 17.7   704 – Lincoln Laboratory ETS, New Mexico MPS 1925
1998 08 23.43316 23 56 26.19 -00 41 49.9 18.5   704 – Lincoln Laboratory ETS, New Mexico MPS 1925
1998 08 23.44617 23 56 25.70 -00 41 50.1 18.5   704 – Lincoln Laboratory ETS, New Mexico MPS 1925
1998 08 23.45814 23 56 25.28 -00 41 53.3 18.5   704 – Lincoln Laboratory ETS, New Mexico MPS 1925
1998 08 26.35619 23 54 46.88 -00 51 08.2 18.3 V 691 – Steward Observatory, Kitt Peak-Spacewatch MPS 80600
1998 08 26.37768 23 54 46.09 -00 51 11.8 18.2 V 691 – Steward Observatory, Kitt Peak-Spacewatch MPS 80600
1998 08 26.39903 23 54 45.28 -00 51 16.4 18.4 V 691 – Steward Observatory, Kitt Peak-Spacewatch MPS 80600
1998 09 13.29385 23 41 58.43 -02 04 27.7 17.2 V 691 – Steward Observatory, Kitt Peak-Spacewatch MPS 2170
1998 09 13.31470 23 41 57.40 -02 04 33.4 17.2 V 691 – Steward Observatory, Kitt Peak-Spacewatch MPS 2170
1998 09 13.33560 23 41 56.37 -02 04 39.1 17.3 V 691 – Steward Observatory, Kitt Peak-Spacewatch MPS 2170
1998 09 14.25708 23 41 12.34 -02 08 53.3 17.7   704 – Lincoln Laboratory ETS, New Mexico MPS 2170
1998 09 14.27912 23 41 11.25 -02 09 00.1 18.0   704 – Lincoln Laboratory ETS, New Mexico MPS 2170
1998 09 14.30120 23 41 10.18 -02 09 06.5 18.3   704 – Lincoln Laboratory ETS, New Mexico MPS 2170
1998 09 14.32319 23 41 09.04 -02 09 11.9 18.0   704 – Lincoln Laboratory ETS, New Mexico MPS 2170
1998 09 18.31440 23 37 56.47 -02 27 38.1 17.6   704 – Lincoln Laboratory ETS, New Mexico MPS 2170
1998 09 18.32729 23 37 55.81 -02 27 39.0 17.5   704 – Lincoln Laboratory ETS, New Mexico MPS 2170
1998 09 18.34039 23 37 55.20 -02 27 43.3 17.2   704 – Lincoln Laboratory ETS, New Mexico MPS 2170
1998 09 18.35360 23 37 54.59 -02 27 47.7 17.2   704 – Lincoln Laboratory ETS, New Mexico MPS 2170
1998 09 19.28359 23 37 09.82 -02 32 04.2 17.1 V 691 – Steward Observatory, Kitt Peak-Spacewatch MPS 2170
1998 09 19.30486 23 37 08.73 -02 32 10.2 17.1 V 691 – Steward Observatory, Kitt Peak-Spacewatch MPS 2170
1998 09 19.32613 23 37 07.70 -02 32 16.1 17.0 V 691 – Steward Observatory, Kitt Peak-Spacewatch MPS 2170
1998 09 26.14137 23 31 44.14 -03 03 04.5 18.1   704 – Lincoln Laboratory ETS, New Mexico MPS 2170
1998 09 26.15784 23 31 43.23 -03 03 06.6 18.1   704 – Lincoln Laboratory ETS, New Mexico MPS 2170
1998 09 26.17462 23 31 42.47 -03 03 13.2 18.4   704 – Lincoln Laboratory ETS, New Mexico MPS 2170
1998 09 26.19117 23 31 41.42 -03 03 17.5 18.4   704 – Lincoln Laboratory ETS, New Mexico MPS 2170
1998 09 27.21081 23 30 54.63 -03 07 42.2 18.3   704 – Lincoln Laboratory ETS, New Mexico MPS 2170
1998 09 27.22831 23 30 54.02 -03 07 48.7 18.5   704 – Lincoln Laboratory ETS, New Mexico MPS 2170
1998 09 27.24560 23 30 53.12 -03 07 53.0 18.2   704 – Lincoln Laboratory ETS, New Mexico MPS 2170
1998 09 27.26312 23 30 52.22 -03 07 59.4 18.2   704 – Lincoln Laboratory ETS, New Mexico MPS 2170
1998 09 27.28046 23 30 51.29 -03 07 59.9 18.9   704 – Lincoln Laboratory ETS, New Mexico MPS 2170
1998 10 28.05556 23 14 57.091 -04 33 31.50 16.95 J I02 – Cerro Tololo Observatory, La Serena--2MASS MPS 80600
1998 11 25.08611 23 18 48.39 -03 58 57.0 18.2 R 699 – Lowell Observatory-LONEOS MPS 55694
1998 11 25.10645 23 18 48.85 -03 58 53.8   699 – Lowell Observatory-LONEOS MPS 55694
1998 11 25.12683 23 18 49.36 -03 58 49.4   699 – Lowell Observatory-LONEOS MPS 55694
1999 10 13.41933 07 01 39.96 +24 24 19.3 18.5   704 – Lincoln Laboratory ETS, New Mexico MPS 7182
1999 10 13.43698 07 01 40.81 +24 24 18.9 18.9   704 – Lincoln Laboratory ETS, New Mexico MPS 7182
1999 10 13.45320 07 01 41.62 +24 24 18.0 19.2   704 – Lincoln Laboratory ETS, New Mexico MPS 7182
1999 10 13.46881 07 01 42.24 +24 24 18.3 18.9   704 – Lincoln Laboratory ETS, New Mexico MPS 7182
1999 10 13.48637 07 01 43.19 +24 24 18.0 18.9   704 – Lincoln Laboratory ETS, New Mexico MPS 7182
1999 12 07.18219 07 09 16.25 +24 45 29.7 17.6   106 – Crni Vrh MPS 8241
1999 12 07.20087 07 09 15.52 +24 45 30.3 17.8   106 – Crni Vrh MPS 8241
1999 12 07.21846 07 09 14.84 +24 45 31.5 17.6   106 – Crni Vrh MPS 8241
1999 12 07.36757 07 09 09.48 +24 45 45.1 17.6   704 – Lincoln Laboratory ETS, New Mexico MPS 8241
1999 12 07.38224 07 09 08.86 +24 45 47.3 17.1   704 – Lincoln Laboratory ETS, New Mexico MPS 8241
1999 12 07.39693 07 09 08.31 +24 45 48.2 17.2   704 – Lincoln Laboratory ETS, New Mexico MPS 8241
1999 12 07.41164 07 09 07.70 +24 45 50.2 17.3   704 – Lincoln Laboratory ETS, New Mexico MPS 8241
1999 12 07.42633 07 09 07.12 +24 45 51.6 17.1   704 – Lincoln Laboratory ETS, New Mexico MPS 8241
2000 01 03.29464 06 45 39.31 +25 21 01.5 17.0   704 – Lincoln Laboratory ETS, New Mexico MPS 9684
2000 01 03.30935 06 45 38.42 +25 21 02.0 17.1   704 – Lincoln Laboratory ETS, New Mexico MPS 9684
